This is the latest recevied weather packets stored in our database for station/object KY4EF. If no packets are shown the sender has not sent any weather packets the latest 10 day(s).
| Time | Temp. | Humidity | Pressure | Rain* | Wind** | Luminosity | Snow |
|---|---|---|---|---|---|---|---|
| 1778087071 | 18.33° C | 99% | 1013 hPa | 0 mm | - | 351 W/m² | - |
| 1778086765 | 18.33° C | 99% | 1012.8 hPa | 0 mm | - | 413 W/m² | - |
| 1778086463 | 18.33° C | 99% | 1012.9 hPa | 0 mm | - | 555 W/m² | - |
| 1778086153 | 17.78° C | 99% | 1013 hPa | 0 mm | - | 656 W/m² | - |
| 1778085850 | 17.78° C | 99% | 1013.1 hPa | 0 mm | - | 404 W/m² | - |
| 1778085548 | 16.67° C | 99% | 1012.9 hPa | 0 mm | - | 185 W/m² | - |
| 1778085242 | 17.78° C | 99% | 1012.9 hPa | 0 mm | - | 233 W/m² | - |
| 1778084937 | 16.67° C | 99% | 1013.1 hPa | 0 mm | - | 428 W/m² | - |
| 1778084635 | 16.67° C | 99% | 1013.4 hPa | 0 mm | - | 247 W/m² | - |
| 1778084332 | 16.67° C | 99% | 1012.7 hPa | 0 mm | - | 275 W/m² | - |
| 1778084029 | 16.11° C | 99% | 1013.2 hPa | 0 mm | - | 168 W/m² | - |
| 1778083727 | 16.11° C | 99% | 1012.9 hPa | 0 mm | - | 96 W/m² | - |
| 1778083424 | 16.11° C | 99% | 1013.8 hPa | 0 mm | - | 79 W/m² | - |
| 1778083123 | 16.11° C | 99% | 1014.3 hPa | 1.78 mm | - | 79 W/m² | - |
| 1778082819 | 16.11° C | 99% | 1014.2 hPa | 3.05 mm | - | 101 W/m² | - |
| 1778081696 | 16.11° C | 99% | 1015.3 hPa | 0 mm | - | 59 W/m² | - |
| 1778081394 | 16.11° C | 99% | 1015.2 hPa | 0 mm | - | 56 W/m² | - |
| 1778081090 | 15.56° C | 99% | 1015 hPa | 1.27 mm | - | 106 W/m² | - |
| 1778080789 | 15.56° C | 99% | 1014.8 hPa | 6.1 mm | - | 90 W/m² | - |
| 1778080486 | 15.56° C | 99% | 1015.2 hPa | 8.89 mm | - | 86 W/m² | - |
| 1778080183 | 15.56° C | 99% | 1015.1 hPa | 7.87 mm | - | 21 W/m² | - |
| 1778079879 | 15.56° C | 99% | 1014.9 hPa | 3.56 mm | - | 51 W/m² | - |
| 1778079576 | 15.56° C | 99% | 1014.6 hPa | 1.27 mm | - | 43 W/m² | - |
| 1778079272 | 15.56° C | 99% | 1014.7 hPa | 1.27 mm | - | 28 W/m² | - |
| 1778078970 | 15.56° C | 99% | 1014.1 hPa | 1.27 mm | - | 26 W/m² | - |
* Rain latest hour (hover to see other rain measurements)
** Current wind speed in m/s (hover to see current wind gust speed)